Погода в Балаганске

Погода в Балаганске : погода сейчас, прогноз погоды и архив. Всё, что Вы хотите узнать о погоде в Балаганске!

Хотите узнать прогноз погоды в Балаганске? Тогда Вам сюда: Погода в Балаганске

Поиск расширенной информации на нашем сайте:

Другие новости

Новости СМИ2

Главная страница сайта

Новости сайта

03.07.2017

Напоминаем, что на нашем специализированном сайте Метеоцентр.Азия вы можете получить высокодетализированные автоматические прогнозы погоды по пунктам России, СНГ и мира в авиационном формате (включающие направление и скорость ветра, видимость, явления погоды, количество и форму облачности, нижнюю и верхнюю границу облачности).

Рекомендуем: Кто готов сделать сайт интернет магазина люстры.

Погода в Балаганске - сегодня

Время (UTC), дата Ветер
(°,м/с) 
Видим.   Явления Облачность Т
(°С)
Тd
(°С)
f(%) Тe
(°С)
Pmin
(гПа)
dP
(гПа)
Po
(мм)
O2
(г/м3)
Тmin Tmax R s Состояние
почвы
18 20.08.17 290 (З) н/о    9/0 средняя, верхняя 
[Ac lent|Cs]
+14.5 +10.6 77 +17  1006.9  0.9  718  273           
21 20.08.17 300 (СЗ) н/о    9/3 600 м средняя, верхняя 
[Sc diur, vesp|Ac lent|Cs]
+13.8 +10.6 81 +17  1007.8  0.7  719  274           
00 21.08.17 280 (З) 20000 м    10/6 600 м кучево-дожд., средняя 
[Cb cap|Ac As]
+14 +10.8 81 +16  1009  1.2  720  274  +13.7        сухая 
03 21.08.17 290 (З) 7-11{12}  20000 м    10/6 600 м кучево-дожд., средняя 
[Cb cap|Ac As]
+13.5 +10.1 80 +14  1010.3  1.1  720  275  +13.5         
06 21.08.17 300 (СЗ) 6-11{13}  20000 м  в посл. час ливневой дождь  10/8 600 м кучево-дожд., средняя 
[Cb cap|Ac As]
+12.4 +9.2 81 +12  1012.3  1.7  722  276           
09 21.08.17 310 (СЗ) 6{12}  20000 м  слаб. ливневой дождь  10/6 600 м кучево-дожд., средняя 
[Cb cap|Ac As]
+12.6 +9.6 82 +13  1013  0.7  722  276           
12 21.08.17 290 (З) 6-11{11}  20000 м  {ливн. осадки}  9/8 600 м кучево-дожд., средняя 
[Cb cap|Ac trans]
+13 +8.1 72 +12  1014.5  1.5  723  277    +14.3  0.0     
15 21.08.17 290 (З) 5{12}  н/о    10/6 600 м кучево-дожд., средняя 
[Cb cap|Ac As]
+11.6 +7.4 75 +11  1016.4  1.6  725  279           
18 21.08.17 280 (З) н/о    10/6 600 м кучево-дожд., средняя 
[Cb cap|Ac As]
+10.9 +6.8 76 +10  1017.2  0.6  725  280           
21 21.08.17 300 (СЗ) н/о    10/5 600 м кучево-дожд., средняя 
[Cb cap|Ac As]
+10.4 +6.9 79 +9  1017.5  0.2  725  280           
00 22.08.17 280 (З) 20000 м    10/5 600 м кучево-дожд., средняя 
[Cb cap|Ac As]
+10.2 +7.8 85 +9  1018.8  1.2  726  281  +10        сухая 
03 22.08.17 310 (СЗ) 20000 м  слаб. ливневой дождь  10/8 600 м кучево-дожд., средняя 
[Cb cap|Ac As]
+9.9 +9.1 95 +10  1019.9  727  281           
06 22.08.17 280 (З) 20000 м  {ливн. осадки}  10/5 600 м кучево-дожд., средняя 
[Cb cap|Ac As]
+11.6 +9.3 86 +12  1019.6  727  279           
09 22.08.17 310 (СЗ) 20000 м    10/5 600 м кучево-дожд., средняя 
[Cb cap|Ac As]
+13.3 +9.2 76 +14  1018.6  -0.6  726  277           
12 22.08.17 тихо ()   20000 м    9/4 600 м кучево-дожд., средняя 
[Cb cap|Ac trans]
+12.7 +8.8 77 +13  1017.8  -0.9  726  278    +13.8     
15 22.08.17 220 (ЮЗ) н/о    10/5 600 м кучево-дожд., средняя 
[Cb cap|Ac As]
+11.3 +9.2 87 +13  1017.9  -0.1  726  279           
18 22.08.17 200 (Ю) н/о    10/5 600 м кучево-дожд., средняя 
[Cb cap|Ac As]
+10.9 +9.5 91 +13  1017.2  0.1  725  279           
21 22.08.17 210 (ЮЗ) н/о    10/5 600 м кучево-дожд., средняя 
[Cb cap|Ac As]
+9.8 +8.5 92 +11  1016.6  -0.7  725  280           
00 23.08.17 200 (Ю) 20000 м    9/4 600 м кучево-дожд., средняя 
[Cb cap|Ac trans]
+9.8 +8.5 92 +11  1015.6  -1  724  280  +8.9        влажная 
03 23.08.17 150 (ЮВ) 20000 м    8/3 600 м средняя 
[Sc|Ac trans]
+16.5 +9.4 63 +18  1013.3  -1  723  273           
06 23.08.17 260 (З) 20000 м    10/8 600 м кучево-дожд., средняя, верхняя 
[Cb cap|Ac lent|Cs]
+18.9 +5 40 +19  1010.7  -2.2  721  271           
09 23.08.17 300 (СЗ) 7-11{11}  20000 м  слаб. ливневой дождь  10/8 600 м кучево-дожд., средняя 
[Cb cap|Ac As]
+16 +6.2 52 +15  1011.3  -0.1  721  274           
12 23.08.17 280 (З) 4{12}  20000 м  {ливн. осадки}  10/8 600 м кучево-дожд., средняя 
[Cb cap|Ac As]
+13.2 +8.7 74 +13  1013.1  1.3  722  276    +19.1  0.0     
15 23.08.17 270 (З) н/о    10/6 600 м кучево-дожд., средняя, верхняя 
[Cb cap|Ac trans|Cs]
+11.6 +9.2 85 +12  1015  -0.1  724  278           
18 23.08.17 270 (З) н/о    6/3 600 м средняя, верхняя 
[Sc diur, vesp|Ac trans|Ci fib]
+9.2 +7 86 +9  1016.6  724  281           
Время (UTC), дата Ветер
(°,м/с) 
Видим.   Явления Облачность Т
(°С)
Тd
(°С)
f(%) Тe
(°С)
Pmin
(гПа)
dP
(гПа)
Po
(мм)
O2
(г/м3)
Тmin Tmax R s Состояние
почвы

Для получения пояснительной информации подведите курсор к названию столбца.

ПОГОДА в Балаганске - архив

Всё, что Вы хотите узнать о погоде в Балаганске - удобно и подробно!

Выберите нужную дату (начиная с 1 января 2015* года) и нажмите кнопку "Найти".
Будут отображены архивные сводки погоды по пункту Балаганск, начиная с указанной даты.


Отображать данные в формате CSV (для использования в таблицах Excel)


Внимание! Наш архив погоды предназначен исключительно для личного некоммерческого использования в познавательных целях. Если Вам необходимы официальные справки о состоянии погоды (для производственных, юридических, коммерческих и т.п. целей), обращайтесь в органы Росгидромета.

*Примечание: данная дата относится к архиву по метеостанциям СССР (Россия, СНГ, Балтия).
Архив по метеостанциям Зарубежной Европы и Азии (кроме Китая) хранится 10 дней, по другим регионам земного шара (Китай, Африка, Америка, Австралия, Океания) - 1 день.

Балаганск - район местоположения метеостанции


Название, широта, долгота, высота метеостанции:
Балаганск 54°ш. 103.1°д. 427 м над ур. моря [Российская Федерация]

Дополнительная информация

В oтличие oт бoльшинства пoгoдных сайтoв мы публикуем пoдрoбную метеoинфoрмацию в детальнoм прoфессиoнальнoм фoрмате.

Характеристики температуры и влажнoсти вoздуха измеряются на высoте 2 м в тени вдали oт зданий и деревьев.
Скoрoсть ветра измеряется на высoте 10 м (на урoвне рoста челoвека скoрoсть ветра ниже в 1.5-2 раза). Если метеoстанция нахoдится в гoрoде или в лесу, тo скoрoсть ветра занижена на 2-4 м/с пo сравнению с oткрытым местoм. Скoрoсть ветра над акватoриями крупных рек и oзёр, а также на вершинах хoлмoв на 2-5 м/с выше, чем в oбычных услoвиях.
Атмoсфернoе давление в разных тoчках местнoсти мoжет значительнo oтличаться oт давления на метеoстанции, в зависимoсти oт услoвий рельефа (при пoдъёме на 10 м давление пoнижается примернo на 1 мм рт.ст.).